Regional Weather Roundup
Issued by NWS

Home | Current Version | Previous Version | Graphics & Text | Print | Product List | Glossary On
Versions: 1 2 3 4 5 6 7 8 9 10 11 12 13 14 15 16 17 18 19 20 21 22 23 24 25 26 27 28 29 30 31 32 33 34 35 36 37 38 39 40 41 42 43 44 45 46 47 48 49 50
000
ASUS43 KBIS 190310
RWRND

NORTH DAKOTA REGIONAL WEATHER ROUNDUP
NATIONAL WEATHER SERVICE BISMARCK ND
1000 PM CDT THU SEP 18 2014

NOTE: "FAIR" INDICATES FEW OR NO CLOUDS BELOW 12,000 FEET WITH NO
SIGNIFICANT WEATHER AND/OR OBSTRUCTIONS TO VISIBILITY.


NDZ001>003-009>011-017-190400-
NORTHWEST NORTH DAKOTA

CITY           SKY/WX    TMP DP  RH WIND       PRES   REMARKS
WILLISTON      CLOUDY    66  53  63 E3        29.59S
MINOT          CLOUDY    73  60  63 S6        29.57R
MINOT AFB      CLOUDY    72  63  73 SW10      29.55S
$$

NDZ018>021-031>035-040>046-190400-
SOUTHWEST NORTH DAKOTA

CITY           SKY/WX    TMP DP  RH WIND       PRES   REMARKS
BISMARCK       CLOUDY    72  62  71 S8        29.69R
DICKINSON      CLOUDY    66  60  81 S9        29.66F
GARRISON         N/A     71  64  78 W9        29.64R
HETTINGER ARPT CLOUDY    71  61  70 S9        29.71S
$$

NDZ004>008-012>016-024-026-027-054-190400-
NORTHEAST NORTH DAKOTA

CITY           SKY/WX    TMP DP  RH WIND       PRES   REMARKS
GRAND FORKS    CLOUDY    69  59  70 S17G23    29.69F
GRND FRKS AFB  MOCLDY    69  62  79 S17       29.69F
DEVILS LAKE    CLOUDY    72  57  60 S17G24    29.64F
$$

NDZ022-023-025-028>030-036>039-047>053-190400-
SOUTHEAST NORTH DAKOTA

CITY           SKY/WX    TMP DP  RH WIND       PRES   REMARKS
FARGO          MOCLDY    69  56  62 S17G26    29.77S
JAMESTOWN      CLOUDY    68  59  73 S16       29.73R
$$




USA.gov is the U.S. government's official web portal to all federal, state and local government web resources and services.